Theta_e
312 312 312 312 312 312 312 312 312 312 312 312 312 312 312 312 313 313 313 313 313 314 313 313 313 313 313 313 313 313 313 310 306 305 303 307 311 316 320 319 322 322 322 314 312 312 308 308 307 307 307 305 304 302 304 306 303 303 298 296 293 295 293 296 295 296 296 297 300 300 299 299 299 302 303 321 329 330 330 330 333 336 337 339 340 340 340 341
311 311 311 311 312 312 312 311 312 312 312 312 312 312 312 312 312 313 313 313 313 313 313 313 313 313 313 312 313 314 311 307 306 304 304 313 317 319 322 324 323 323 321 312 311 309 307 305 305 306 304 301 304 301 305 303 305 300 296 296 293 295 296 299 298 298 297 299 300 300 300 298 300 299 303 307 313 326 325 327 330 330 334 338 338 338 338 339
311 311 311 311 311 312 311 311 311 311 312 311 312 312 312 312 312 312 313 313 313 313 313 313 313 313 313 312 313 313 309 306 304 301 311 322 323 321 323 325 324 325 313 311 310 310 308 307 306 304 302 301 303 300 303 302 304 301 298 294 295 297 297 297 298 298 299 300 300 300 301 298 301 300 307 307 311 324 321 325 326 328 330 333 334 336 337 337
311 311 310 310 311 311 311 311 311 311 311 311 312 312 312 312 312 312 312 312 312 312 312 313 313 313 313 313 313 312 307 302 299 306 310 322 328 325 322 324 326 324 308 308 306 306 307 307 305 304 301 300 300 302 299 302 301 301 298 296 297 297 297 299 298 300 301 300 300 300 300 300 302 301 307 310 305 305 320 328 328 328 331 333 333 334 335 335
309 310 310 310 310 311 311 311 311 311 311 311 311 311 311 312 312 312 312 312 312 312 312 313 312 313 313 314 312 311 305 293 302 308 311 329 332 326 323 324 327 320 308 304 306 306 307 305 303 301 300 298 300 301 300 302 303 300 299 300 298 300 299 302 302 302 301 301 299 300 299 300 302 302 303 303 300 300 305 323 331 333 335 333 332 333 335 332
309 309 310 310 310 310 311 311 311 311 311 311 311 311 311 312 312 312 312 312 312 312 312 312 312 312 313 312 311 307 296 289 301 302 327 333 327 324 325 327 328 311 305 305 304 305 305 303 302 298 298 299 299 297 300 302 302 296 300 300 301 302 300 302 302 303 300 301 300 299 301 299 300 299 301 300 301 305 321 327 330 335 337 336 335 334 331 329
309 309 310 310 310 310 310 311 310 311 311 311 311 311 311 311 311 311 311 311 312 312 312 312 312 312 312 310 308 302 294 294 304 306 334 331 327 327 329 330 321 307 305 303 303 303 303 301 301 298 297 298 298 299 300 301 301 299 297 299 301 300 300 302 303 303 301 299 300 301 300 298 298 298 304 305 308 311 329 335 334 337 338 336 332 328 328 329
310 310 309 310 310 310 310 311 311 311 311 311 311 311 311 310 310 311 311 311 311 311 311 311 312 312 311 307 302 297 294 295 303 305 331 329 327 326 319 311 307 305 304 303 302 301 302 300 298 299 297 295 297 299 300 300 300 299 298 299 301 301 302 303 302 299 299 299 300 298 297 299 298 299 299 300 304 325 335 337 336 336 335 331 327 326 327 329
310 310 309 309 310 310 310 310 311 311 310 311 311 310 310 310 310 311 311 311 311 311 311 311 311 312 311 304 296 292 293 298 300 316 327 324 323 320 316 310 309 306 303 302 303 303 302 299 300 300 294 295 298 298 299 299 296 300 300 300 301 301 303 303 301 301 300 299 298 297 298 299 299 299 299 302 314 333 335 336 335 334 330 328 327 327 328 329
309 309 309 309 309 309 309 310 310 310 310 311 311 310 310 310 310 310 310 311 310 310 310 311 312 310 307 305 295 291 299 298 319 324 322 320 317 314 312 313 309 306 303 300 300 301 301 300 301 301 300 298 300 299 300 299 297 300 301 301 301 301 300 300 298 299 298 296 297 297 298 299 299 301 299 319 330 332 334 333 335 332 327 327 327 328 330 330
309 309 309 309 309 309 309 309 310 310 310 310 310 310 310 310 309 310 310 310 311 310 310 311 311 310 305 303 295 290 301 314 317 322 319 316 313 311 311 311 309 308 306 301 301 302 302 302 302 301 301 298 300 298 299 300 301 299 300 298 297 297 296 297 296 297 297 299 298 298 297 297 298 300 300 314 330 332 331 331 332 331 326 326 326 327 329 331
309 309 309 309 309 309 309 309 309 309 310 310 309 309 309 309 309 309 310 310 310 311 310 310 311 308 305 299 296 295 301 316 319 320 318 314 311 312 310 312 310 310 308 303 303 302 302 303 302 301 296 301 296 297 297 300 298 299 297 295 296 297 297 297 297 298 296 299 297 299 297 296 296 297 301 312 330 331 330 330 331 330 327 326 326 326 327 328
309 309 309 309 309 309 309 309 309 309 309 309 309 309 309 309 309 310 309 310 310 309 309 310 310 307 301 294 296 303 303 315 315 308 312 306 305 309 311 312 311 310 310 307 305 305 302 302 304 300 302 301 299 297 298 300 298 297 297 295 294 295 295 296 296 295 295 298 296 298 291 295 297 300 300 307 329 329 329 329 330 328 327 326 326 326 326 328
308 309 309 308 309 308 309 309 309 309 309 309 309 309 309 309 309 309 310 309 310 309 310 311 309 305 299 292 299 301 304 305 305 304 304 306 304 305 309 309 311 308 305 304 304 304 302 304 305 304 302 301 299 303 299 296 296 296 295 295 292 292 292 296 296 296 296 297 295 299 292 295 298 300 300 319 329 327 325 328 329 328 327 326 326 326 326 327
308 308 308 308 308 309 309 309 309 309 309 309 309 309 308 308 309 310 311 310 309 309 309 311 308 303 297 298 305 308 315 308 305 304 307 304 304 304 307 306 309 309 305 304 303 302 302 303 302 301 300 301 300 298 295 295 294 294 292 291 291 291 293 296 298 297 296 298 298 298 293 295 298 299 299 320 328 327 325 327 328 327 328 326 326 325 326 326
308 308 308 308 308 308 308 308 308 308 308 309 308 308 308 309 311 310 309 309 310 311 310 304 303 302 295 294 301 316 313 305 307 312 310 308 306 305 308 305 305 305 305 304 304 303 303 303 300 300 299 300 298 295 294 294 293 293 292 291 290 291 291 293 295 294 295 296 298 296 293 295 297 298 300 323 327 326 325 326 327 327 328 327 326 326 326 327
307 308 308 308 307 307 308 308 308 308 308 308 308 308 308 309 311 310 310 310 311 310 308 302 304 304 292 300 307 302 303 307 309 313 308 309 308 305 304 303 302 301 303 302 302 302 301 299 300 299 299 297 296 295 292 290 290 291 291 291 291 290 291 290 296 295 297 297 295 297 295 296 299 300 305 323 326 325 324 324 326 326 327 328 328 328 327 327
307 307 307 307 307 307 307 307 308 308 308 308 307 306 305 308 311 310 309 309 310 309 307 309 304 296 293 300 296 299 306 307 309 312 310 310 309 305 305 301 299 301 300 299 300 298 299 297 298 295 297 295 295 294 290 287 290 290 291 290 290 290 290 290 291 294 296 296 295 295 295 296 299 300 299 315 326 324 324 324 326 326 326 327 328 327 328 328
307 307 307 307 307 307 307 307 307 307 307 307 307 306 308 310 307 308 305 305 301 295 291 294 293 287 290 295 300 303 304 308 308 307 306 308 307 307 306 303 301 300 297 298 297 298 297 297 299 295 292 292 293 293 292 291 291 291 291 290 290 290 291 291 293 296 295 295 294 295 295 297 299 300 301 301 322 323 323 325 326 326 326 326 327 327 328 329
307 307 307 307 307 307 307 307 307 307 307 305 303 303 304 298 296 295 302 302 299 297 295 297 299 297 297 298 299 306 308 307 303 305 308 309 307 305 304 304 300 301 299 297 296 298 299 294 291 291 294 294 296 296 296 294 293 291 291 291 290 290 291 291 292 296 296 294 295 296 296 296 298 300 301 300 318 322 322 322 323 324 325 324 325 326 328 329
306 306 306 306 307 307 307 307 307 307 307 305 301 297 294 294 292 292 294 296 303 302 300 300 301 299 298 302 303 303 299 301 303 304 307 312 307 305 301 302 300 298 298 297 297 300 298 293 293 295 295 297 298 298 296 293 293 292 292 291 291 290 290 292 293 296 295 295 294 296 295 297 299 301 301 300 309 317 320 321 322 323 324 324 325 325 327 330
306 306 306 306 306 306 306 307 307 306 304 303 300 296 296 295 297 298 297 293 297 298 300 300 301 300 304 303 305 305 302 297 298 302 304 308 304 300 298 299 297 295 296 295 296 295 293 291 295 295 298 298 296 295 296 296 293 292 292 292 290 291 291 293 292 294 295 294 294 295 294 296 299 300 300 301 300 310 320 321 323 323 323 324 324 325 326 327
306 306 306 306 306 306 306 307 306 303 301 300 297 296 297 301 302 304 301 295 293 298 296 296 296 297 298 302 304 306 297 295 293 299 301 306 300 300 299 297 297 297 294 297 294 292 290 293 295 297 296 298 294 294 294 294 294 292 291 290 289 291 289 289 295 295 296 295 295 296 294 296 300 303 304 306 307 304 310 320 323 326 324 324 325 325 325 326
305 305 306 306 306 306 306 306 304 302 299 298 296 297 301 302 303 304 299 294 293 297 296 297 298 298 298 297 303 302 297 296 296 296 305 305 301 301 300 298 296 296 295 295 296 293 293 293 296 295 296 297 295 294 294 293 291 293 293 291 290 289 291 291 292 294 296 297 296 295 294 295 297 300 303 308 311 309 309 310 318 323 325 327 328 326 326 326
305 305 306 306 306 306 306 305 299 299 300 298 297 302 303 304 304 303 299 294 292 293 300 298 299 300 301 307 305 300 299 299 298 301 304 306 299 299 299 298 298 294 296 294 295 294 294 296 296 294 293 293 294 291 293 293 290 291 294 293 293 293 292 292 293 291 292 292 296 294 289 291 295 297 302 307 309 309 312 312 310 318 323 323 323 324 326 327
305 305 305 306 306 305 306 299 296 299 298 297 300 303 304 304 304 305 298 289 286 292 296 292 302 296 307 299 302 300 299 294 301 302 304 307 307 303 298 297 298 294 294 293 295 296 296 297 296 294 293 292 292 292 293 294 291 289 291 295 294 293 293 292 290 291 288 287 294 295 289 287 295 295 301 306 308 308 309 311 313 316 320 321 321 323 324 325
305 305 305 305 305 305 299 292 301 300 296 296 302 305 303 303 305 302 293 286 283 293 294 296 296 297 304 300 301 299 286 290 302 303 303 306 303 304 298 295 295 295 295 298 294 292 293 293 294 295 295 292 292 291 293 293 291 289 295 292 294 292 291 292 291 291 290 295 297 292 293 289 289 295 302 306 306 307 308 309 312 316 319 320 322 323 324 325
305 305 305 305 305 304 300 301 299 296 296 301 304 304 303 304 304 304 292 277 278 293 292 295 297 305 302 301 302 295 293 297 294 299 304 305 305 300 300 295 295 294 294 295 287 297 297 293 294 292 293 292 292 295 294 294 292 292 294 293 292 293 294 292 292 291 292 291 289 292 293 289 288 295 302 305 303 306 306 307 309 314 317 320 322 323 323 325
305 305 305 305 305 305 304 301 299 297 301 303 304 303 303 305 303 296 285 276 290 293 306 293 304 299 299 301 298 298 297 298 293 298 303 304 304 302 297 297 297 296 295 297 292 293 293 296 295 296 294 292 294 293 294 294 292 295 294 294 295 294 293 293 292 291 291 289 286 290 293 288 289 295 299 303 302 302 304 307 309 312 315 319 320 321 322 324
305 305 305 305 304 302 301 302 298 303 304 304 303 303 304 302 296 287 280 275 292 286 294 295 293 290 297 295 295 297 295 296 296 300 301 299 301 302 297 300 296 295 293 294 294 296 295 301 297 295 294 297 296 295 294 295 295 295 295 294 293 293 293 293 293 292 290 284 288 291 292 291 285 293 296 302 302 303 304 307 311 313 315 318 319 319 319 321
304 305 304 305 300 301 300 296 300 302 303 304 304 301 300 296 288 280 274 285 290 291 293 291 289 293 289 288 287 294 295 296 296 298 295 299 297 299 298 296 298 295 293 294 292 293 294 294 294 295 298 294 296 293 293 295 295 295 294 293 292 291 292 291 290 292 284 284 289 289 291 291 284 291 298 303 305 306 305 305 308 311 313 316 317 318 319 320
304 304 305 303 303 304 297 296 298 304 304 304 303 300 295 284 287 278 280 293 283 287 286 287 290 290 289 289 287 291 293 293 295 296 294 295 295 294 295 292 294 287 287 288 289 292 292 293 294 295 303 297 293 293 292 293 294 293 293 292 288 285 285 282 287 282 284 284 289 289 289 288 288 295 301 304 306 307 309 308 309 311 313 316 317 317 319 319
305 304 305 304 304 301 302 305 304 305 305 303 297 294 290 280 275 283 283 286 284 288 287 291 288 290 289 288 290 291 293 291 294 295 296 294 295 295 294 295 295 294 286 290 289 289 291 293 292 294 295 298 296 291 291 290 292 291 290 290 286 283 281 276 282 283 285 288 290 289 291 288 293 298 305 304 307 309 310 310 309 313 314 315 315 315 316 317
304 304 301 303 303 303 305 306 305 305 302 301 298 291 284 277 278 291 284 286 286 290 289 288 290 289 288 288 289 293 290 293 294 294 295 293 294 292 294 294 293 293 295 287 287 288 284 286 291 292 291 297 296 295 295 294 291 292 293 292 290 289 284 278 283 280 283 286 289 291 288 287 290 297 305 307 309 312 313 314 315 316 315 315 316 316 316 317
304 303 303 302 302 303 304 305 305 305 301 298 290 287 278 278 281 281 284 285 286 288 288 291 287 286 289 288 291 291 294 292 294 294 293 292 291 293 292 294 293 295 293 289 289 287 288 288 293 295 293 295 295 297 297 293 292 292 293 294 290 289 294 286 286 287 287 286 285 288 288 293 297 303 304 308 311 310 311 312 313 312 313 314 314 314 316 318
302 302 302 300 300 303 304 305 305 303 299 294 288 280 278 285 281 284 286 289 288 286 287 288 286 286 286 287 289 288 294 294 295 294 292 293 294 292 294 294 294 295 293 289 291 286 286 287 293 294 293 294 296 296 295 297 287 292 291 288 292 296 295 286 284 286 283 285 284 289 292 295 301 301 304 307 307 307 309 309 311 311 312 313 313 314 316 318
299 301 302 302 303 305 305 305 304 300 296 291 285 279 285 284 285 287 292 289 289 289 286 282 286 285 284 284 287 287 290 296 297 293 289 293 291 293 292 294 295 294 296 297 289 292 288 289 293 291 292 295 294 295 296 295 297 292 288 293 294 296 297 291 284 284 284 282 283 289 290 292 292 291 302 304 303 304 307 308 308 311 312 312 313 315 316 318
298 298 303 305 305 305 305 305 302 295 293 291 282 289 285 285 287 289 290 290 291 289 286 284 286 287 284 285 287 287 290 292 292 294 290 292 291 297 295 295 297 296 297 297 294 294 292 286 292 291 293 294 295 295 294 294 295 295 293 298 292 287 286 289 287 280 279 279 283 288 288 290 293 295 299 300 300 301 304 308 309 308 310 311 312 313 316 318
298 299 302 304 305 306 305 305 300 297 293 286 281 282 285 286 289 289 291 291 291 288 286 286 285 287 287 286 287 287 289 287 291 296 289 292 289 296 297 297 297 297 297 296 294 293 293 287 290 292 292 293 294 294 288 292 295 295 296 294 295 295 293 287 287 290 289 281 281 284 289 288 295 297 298 299 301 302 303 306 307 308 310 311 311 312 314 316
298 300 299 305 305 306 306 304 301 294 289 283 283 284 286 289 292 293 293 293 291 289 288 287 286 286 289 288 287 287 289 290 293 292 291 296 292 298 297 300 296 297 295 296 295 296 290 293 284 292 292 293 291 295 293 293 291 292 293 292 293 295 294 294 292 289 287 284 283 284 283 291 295 300 300 301 302 303 304 305 307 307 309 311 312 313 313 314
297 299 299 306 305 306 305 302 298 292 289 289 287 287 290 291 294 295 296 294 294 295 292 289 290 288 289 288 288 288 288 290 292 292 292 294 294 291 297 299 298 297 297 294 294 296 290 288 287 292 291 292 292 295 295 293 294 293 294 292 294 291 289 286 284 289 289 288 282 283 282 292 295 303 303 302 303 305 306 306 306 307 307 308 310 312 313 312
298 295 298 306 306 306 302 296 292 291 292 290 291 291 291 298 293 294 294 294 293 294 293 292 291 290 290 289 290 289 289 289 292 292 292 292 295 295 299 298 299 300 297 293 295 298 297 292 292 287 290 292 294 295 295 295 295 293 292 292 293 295 295 290 283 286 289 287 289 290 286 289 300 304 304 305 305 306 307 306 304 305 306 308 309 311 312 312
298 297 304 305 308 304 299 290 291 291 293 293 293 292 293 293 292 293 292 294 292 292 292 290 291 289 290 289 289 289 289 289 291 291 294 294 296 297 299 298 299 298 300 299 295 298 306 292 288 289 292 293 295 294 295 296 296 296 297 296 294 293 293 293 292 293 290 288 287 287 285 288 299 305 305 305 306 306 306 306 305 304 305 307 307 308 309 309
297 300 301 305 307 303 298 287 287 286 290 293 292 292 293 292 292 292 292 293 292 292 291 291 291 290 290 291 291 290 294 287 292 292 292 294 296 299 298 297 297 303 298 300 295 299 290 292 291 287 287 289 292 294 294 295 296 294 294 294 293 292 291 291 293 294 289 290 290 288 283 289 299 305 305 304 302 300 300 300 301 301 302 303 303 304 305 306
297 299 300 300 303 304 296 293 292 284 289 289 289 290 291 292 293 293 292 292 293 292 291 291 292 292 291 292 292 293 294 292 290 293 293 293 296 298 298 298 303 302 303 305 304 302 293 290 290 284 281 280 279 281 285 288 292 292 292 292 292 292 291 293 288 290 286 288 288 289 288 293 300 303 302 300 299 298 299 299 300 299 299 299 301 302 302 303
297 290 294 297 296 297 294 294 294 293 289 289 286 289 289 288 292 292 293 293 293 293 292 292 292 292 290 290 291 291 290 293 292 293 292 293 294 297 297 299 299 305 307 307 305 300 291 291 290 290 288 287 288 288 288 289 292 293 290 290 290 290 290 291 293 288 287 287 288 291 294 293 296 298 297 297 297 296 296 297 297 297 298 299 300 300 300 301
295 292 286 289 293 292 291 292 293 292 289 291 286 288 288 288 289 291 293 290 293 292 291 290 289 289 288 289 289 289 289 290 292 291 289 290 292 296 299 299 299 300 304 302 302 295 292 290 290 290 289 290 290 290 291 291 289 287 288 290 291 291 291 291 290 289 295 289 287 292 296 294 295 296 295 294 295 295 296 296 296 297 298 298 299 300 301 301
292 290 292 295 290 286 288 288 292 291 291 291 288 290 288 287 289 287 292 293 293 293 290 290 289 288 287 286 288 286 287 288 289 286 290 290 292 297 297 300 298 300 300 299 301 300 294 288 287 290 289 291 291 291 292 290 289 288 288 289 290 291 293 291 288 287 292 290 288 294 297 293 291 292 294 294 295 294 294 295 296 297 298 298 298 298 299 300
294 292 294 293 291 288 289 291 292 292 292 291 289 289 288 288 287 289 289 291 291 292 290 284 287 288 288 287 289 286 286 286 285 289 288 289 289 291 293 296 299 300 297 299 299 298 295 288 290 290 288 290 291 291 291 290 288 289 289 289 291 293 291 292 291 294 292 292 297 295 293 288 291 291 293 293 295 295 295 296 297 297 297 297 297 296 296 297
293 293 292 292 293 291 291 290 289 290 289 289 286 289 289 288 288 290 291 289 287 289 291 288 287 288 289 288 289 286 286 288 287 284 290 290 290 291 290 293 291 295 296 298 298 298 296 288 292 290 289 289 290 292 291 290 290 289 289 290 291 292 293 292 292 292 296 296 295 292 289 287 291 294 293 294 295 296 296 295 295 296 296 296 296 295 296 296
297 297 296 294 289 289 292 288 290 289 287 287 288 289 290 290 289 289 290 292 290 288 289 287 288 289 288 288 288 287 288 289 289 290 292 291 288 291 289 292 291 288 290 297 298 298 296 288 291 288 287 286 290 290 290 289 290 288 287 288 288 289 289 289 288 289 290 290 292 291 288 286 290 294 294 294 294 293 292 293 294 294 295 295 294 294 295 296
297 296 294 293 287 288 287 285 285 287 285 285 287 288 289 289 289 288 287 290 292 293 291 290 290 289 289 289 287 288 290 290 291 291 291 295 296 292 292 292 291 289 288 293 296 295 294 291 288 288 286 284 288 289 288 287 289 286 285 285 286 289 290 291 292 292 292 295 290 289 288 290 291 293 291 291 291 291 291 292 293 293 294 294 294 293 294 295
Wind_Speed
11 11 11 11 11 11 11 11 11 11 11 11 11 11 11 11 11 11 11 11 11 12 11 12 12 12 12 13 13 14 13 9 10 5 3 10 5 6 10 3 11 14 5 9 11 13 7 8 7 1 4 2 2 5 2 1 1 2 4 2 6 4 4 3 5 5 2 5 8 10 7 9 12 12 5 4 1 2 1 1 4 1 3 3 4 13 16 17
11 11 11 11 11 11 11 11 11 11 11 11 11 11 12 12 12 13 13 13 12 12 12 12 12 12 13 13 13 13 10 8 9 7 14 7 6 9 9 2 9 13 8 9 14 9 14 7 6 6 6 4 2 3 0 3 1 4 2 3 10 2 2 3 1 3 4 8 10 8 3 4 9 6 4 7 5 1 3 3 3 4 4 7 11 15 17 17
11 11 11 11 11 11 11 11 11 11 11 12 12 12 12 12 12 11 11 12 13 13 13 13 13 13 13 13 14 9 9 5 5 2 2 9 14 10 10 6 9 13 8 9 6 12 13 14 10 9 2 4 0 4 2 3 4 2 4 7 6 2 0 2 3 3 4 6 9 11 6 5 9 3 4 5 8 3 6 3 2 4 3 6 11 14 15 15
11 11 11 11 11 12 12 12 11 11 12 12 12 12 12 13 13 12 12 12 12 12 13 13 13 14 14 13 13 9 4 5 1 1 2 5 7 10 12 11 11 12 4 5 4 5 7 10 8 5 4 4 2 1 6 3 5 3 4 7 1 3 2 2 3 5 7 3 7 8 8 10 2 5 4 6 9 6 5 6 7 7 4 7 11 13 13 10
12 12 12 12 12 11 12 12 12 12 12 12 12 12 13 12 12 12 13 13 13 12 12 13 13 13 14 13 13 4 4 2 4 2 2 8 3 12 14 14 13 10 2 8 9 7 11 11 8 3 2 4 2 4 4 3 3 3 8 5 6 2 2 2 5 5 6 1 4 7 11 9 8 3 4 7 6 7 5 1 8 3 7 10 11 11 9 9
12 12 12 12 12 12 12 12 12 12 12 12 12 12 11 12 12 12 12 12 13 12 12 13 13 13 13 12 5 1 2 1 1 2 9 3 9 13 14 14 15 9 6 7 5 9 12 5 9 6 4 4 7 8 3 5 4 7 7 5 4 6 7 2 4 4 1 6 7 8 5 6 7 10 4 6 9 7 4 4 2 6 10 13 12 12 11 9
12 12 11 12 13 13 13 13 13 12 12 12 12 12 12 11 12 12 12 13 12 12 12 12 13 13 12 7 0 2 3 7 3 1 8 8 12 12 13 14 16 9 6 9 10 9 6 9 6 6 6 3 1 2 5 6 4 8 6 4 0 2 5 5 9 5 6 3 8 5 8 7 6 12 2 6 10 5 5 2 8 12 13 15 13 10 10 10
12 12 12 11 12 12 13 13 13 13 12 12 12 12 12 12 12 12 12 12 11 11 12 11 12 12 10 4 1 2 1 6 6 2 6 11 13 14 13 10 11 7 8 11 10 8 10 12 11 4 4 7 4 8 4 6 6 11 9 0 4 3 4 5 5 5 6 7 7 6 6 8 2 7 6 11 5 5 5 10 13 14 15 14 13 12 12 12
12 12 12 12 12 12 12 13 13 13 13 12 12 13 13 12 12 12 11 12 11 11 11 11 10 10 5 2 3 5 3 5 2 4 5 8 8 9 9 10 3 8 4 3 4 11 11 6 6 6 4 6 4 11 3 8 8 8 9 5 8 10 9 5 7 8 7 4 3 5 9 6 6 3 7 9 8 6 9 12 14 15 16 14 12 11 11 12
12 13 13 12 12 12 13 13 13 13 13 12 12 13 13 13 12 12 12 11 11 10 10 10 9 9 4 2 0 3 2 1 2 4 7 9 8 7 6 6 8 8 8 3 4 8 6 6 8 7 4 3 7 6 5 7 2 2 4 6 7 6 3 3 5 6 0 4 4 6 8 6 2 2 5 8 7 10 11 13 14 15 14 13 12 9 9 12
13 13 13 13 13 13 13 13 13 13 13 13 13 13 14 13 13 13 12 12 11 10 9 8 7 7 2 1 2 4 1 2 1 4 9 9 10 7 6 7 6 6 6 3 5 4 2 8 3 4 1 3 8 3 6 4 2 2 4 4 5 5 4 6 5 9 2 5 5 8 7 2 4 1 6 8 7 9 13 13 15 14 13 12 12 10 7 8
13 14 13 13 13 13 14 13 13 14 13 13 13 14 14 14 14 13 13 13 12 10 7 6 5 1 1 0 4 7 0 1 4 4 7 9 8 6 6 8 9 8 9 7 5 3 4 3 6 4 1 5 5 3 4 2 2 3 1 7 4 4 5 2 5 1 2 6 6 5 5 6 2 7 3 4 6 9 12 14 13 13 12 12 11 8 6 8
13 13 13 13 13 14 14 14 14 14 14 14 14 15 15 15 15 15 14 12 10 8 4 2 1 1 1 3 8 4 0 5 5 2 4 2 2 1 4 6 7 4 5 6 5 6 5 3 1 5 2 3 5 1 3 1 2 3 2 1 4 4 6 3 1 1 3 4 2 4 7 1 3 9 3 2 7 9 11 13 12 11 10 12 10 8 8 7
13 13 13 14 14 14 15 14 14 15 14 15 15 15 16 17 17 16 14 11 8 5 5 5 3 2 1 6 5 2 4 2 1 5 7 2 2 3 3 3 3 2 1 3 2 2 5 2 3 1 2 2 1 2 1 2 2 4 1 1 1 3 2 1 2 3 4 2 2 5 6 5 5 6 4 3 8 9 10 12 13 11 10 10 9 8 9 10
13 14 14 14 14 15 15 15 15 15 15 15 15 16 17 18 16 13 10 6 5 6 6 5 3 3 1 7 5 8 7 4 4 10 6 8 8 1 5 5 5 4 1 2 2 1 3 4 1 4 3 1 1 1 1 2 3 2 3 3 1 2 0 9 4 1 6 2 4 6 4 5 5 6 6 4 6 8 9 11 13 12 11 11 11 8 9 11
13 13 14 14 14 15 15 15 15 15 15 16 16 17 17 15 12 5 2 4 5 9 7 5 2 2 1 6 2 5 6 4 5 7 6 9 10 5 6 6 6 4 3 2 1 2 3 6 2 2 0 1 0 1 2 1 1 2 3 3 2 1 2 4 3 2 0 2 4 3 3 4 3 3 4 6 8 8 9 10 11 14 14 11 11 8 8 10
14 14 14 14 15 15 16 16 15 16 16 16 18 16 14 10 4 7 9 9 6 5 3 2 3 3 2 1 2 2 4 5 0 2 2 5 8 8 12 8 5 5 2 3 3 2 3 5 1 2 4 0 1 2 2 4 4 2 1 3 1 5 1 1 2 3 7 6 3 5 3 5 9 4 3 6 8 9 9 11 12 12 13 13 11 11 10 11
14 14 14 15 15 15 15 15 15 16 16 16 17 14 7 9 6 10 8 6 3 3 1 2 2 2 7 2 4 2 1 3 1 3 3 2 5 10 7 4 5 7 5 4 2 5 1 3 1 3 2 1 3 4 7 6 4 4 4 4 3 3 2 1 2 2 8 2 6 2 5 9 10 5 4 4 7 8 10 10 11 12 12 13 11 11 10 11
14 14 14 15 15 15 15 15 15 16 16 16 15 9 4 1 1 1 5 2 3 2 0 3 3 5 2 2 2 4 2 2 1 3 3 8 4 3 5 6 12 12 5 3 2 3 2 2 1 3 8 6 7 7 6 2 3 3 2 1 2 4 2 1 2 6 3 9 9 7 6 7 9 9 2 3 6 8 10 9 9 11 12 13 12 10 11 11
14 14 15 15 16 15 15 16 15 16 17 12 7 2 1 1 0 2 1 1 5 7 2 3 8 4 7 5 5 5 4 2 2 2 4 2 10 6 5 4 3 3 5 6 4 3 2 6 7 10 6 5 5 7 8 5 3 3 2 2 4 5 3 1 4 7 2 5 7 7 6 5 9 10 5 5 6 8 10 12 12 12 12 13 13 12 11 15
15 15 15 15 16 16 16 16 16 17 17 8 4 1 1 2 1 2 3 9 8 5 8 7 13 11 8 5 2 5 5 3 3 1 3 4 4 12 4 4 5 5 1 2 5 2 3 5 8 3 8 9 9 7 4 4 1 4 4 4 6 3 4 1 6 3 1 4 6 2 4 9 9 8 5 2 6 12 13 14 14 15 16 14 15 14 13 14
15 15 15 16 16 17 17 17 18 13 6 0 2 2 0 2 2 2 1 6 1 10 10 13 3 12 3 6 3 3 3 4 8 8 2 7 8 9 3 5 5 8 3 4 4 4 5 10 4 7 4 5 5 5 5 7 5 2 5 3 6 4 2 6 6 5 3 5 8 1 6 9 11 6 7 4 4 6 11 14 15 16 16 15 15 15 13 13
15 15 15 16 16 17 17 18 11 7 3 2 1 2 2 1 3 3 1 4 8 3 6 5 7 13 6 3 6 7 6 9 9 2 7 7 6 5 9 6 7 4 3 5 8 5 5 8 6 6 7 7 4 4 6 3 1 4 3 4 9 2 3 3 3 2 4 3 4 4 9 10 7 3 4 2 1 4 6 12 14 12 14 15 16 15 13 15
14 15 15 15 16 17 17 18 4 1 0 3 4 5 2 3 3 4 3 4 6 5 6 7 9 4 6 5 7 13 11 5 5 8 4 10 8 5 7 9 7 6 8 9 9 8 3 3 4 7 7 9 6 4 6 5 5 3 6 6 6 2 5 6 3 1 4 6 3 8 7 7 2 4 3 3 3 4 7 10 12 15 14 11 8 11 13 15
15 15 15 16 16 17 18 14 1 1 5 5 5 5 5 5 3 2 3 4 2 5 2 1 3 6 6 2 6 10 6 1 11 1 7 12 7 7 6 3 5 7 8 5 5 5 7 5 5 9 4 4 6 4 6 5 6 3 6 10 8 8 10 8 1 4 3 4 3 4 4 5 1 4 7 4 3 4 3 7 14 15 15 13 13 12 12 13
14 15 15 15 16 17 16 1 1 4 7 4 2 2 3 3 3 2 1 3 4 3 2 1 3 2 4 3 6 3 6 7 6 6 7 7 9 7 5 5 3 10 8 9 5 2 4 5 9 8 7 6 7 6 4 8 5 2 4 13 14 13 9 4 4 2 3 4 2 2 3 3 0 5 6 3 5 7 5 8 10 11 12 13 11 11 12 12
14 15 15 15 14 14 6 1 3 7 3 2 1 3 4 4 3 3 2 2 1 2 2 2 2 1 1 4 8 2 5 2 3 5 8 5 10 1 10 6 2 4 4 3 2 6 4 3 5 4 6 6 4 6 6 11 5 4 1 4 6 7 7 8 7 7 5 3 3 2 5 7 7 6 3 4 8 8 6 6 7 6 8 10 10 11 11 11
14 14 14 14 12 9 5 8 8 3 3 3 3 6 5 4 2 0 0 1 0 1 2 1 1 2 1 2 5 6 2 3 1 4 2 1 3 2 3 9 11 9 5 6 10 2 6 6 8 7 5 4 7 9 6 10 7 2 2 7 7 9 7 6 6 5 2 3 5 2 3 4 5 3 1 3 8 4 3 3 2 3 6 9 10 8 8 9
15 14 14 13 13 13 8 6 4 7 1 2 5 5 4 2 2 2 1 1 1 3 1 3 0 2 3 4 5 7 4 1 2 2 1 1 4 2 7 8 5 7 4 10 9 3 3 7 11 10 8 8 6 4 11 12 8 3 6 4 4 4 3 5 4 4 3 2 5 5 4 5 5 3 2 0 3 6 5 8 2 3 3 6 5 4 7 7
15 14 14 14 11 6 2 4 10 5 2 6 5 6 3 4 1 0 2 3 4 1 2 2 2 3 2 3 4 6 7 3 1 1 4 5 5 3 5 2 6 7 6 2 3 1 2 3 2 4 9 8 7 3 8 14 5 5 8 5 3 3 2 3 1 2 3 3 5 5 7 5 5 1 2 2 4 4 8 6 4 1 5 4 5 6 7 7
15 15 14 12 6 3 3 5 7 6 4 4 6 2 2 4 2 3 3 2 3 2 1 4 2 0 2 4 3 1 6 4 1 8 6 1 4 2 5 6 4 4 2 1 5 2 1 2 3 4 2 3 2 4 1 2 1 1 1 2 3 2 1 2 2 1 2 5 2 4 5 7 6 1 2 3 7 6 6 8 6 2 5 6 5 8 8 8
15 16 15 10 8 5 5 4 3 2 2 7 5 2 2 2 3 2 2 2 1 4 3 4 2 3 5 1 3 2 4 3 5 7 9 9 10 9 8 7 7 4 4 4 6 3 5 7 2 4 2 7 3 4 3 3 4 5 3 2 4 1 0 2 2 3 5 4 3 2 4 3 9 2 4 8 8 9 8 7 5 1 4 7 6 8 9 10
14 17 19 13 11 9 14 11 2 4 8 7 2 2 2 2 3 2 2 4 2 2 2 1 6 10 8 5 2 3 1 4 4 6 5 2 6 5 5 1 5 4 4 2 3 1 4 1 1 5 1 5 7 8 4 3 7 7 7 6 5 3 2 1 2 1 3 4 1 1 2 5 2 1 6 8 9 7 7 5 3 4 5 9 9 10 11 11
18 20 12 8 8 10 7 6 6 4 3 1 1 5 6 2 2 1 2 2 3 2 3 2 9 7 2 1 4 1 3 2 6 5 9 4 6 6 5 2 4 4 4 2 5 5 3 3 7 7 4 7 11 11 10 3 8 8 2 8 5 7 5 3 5 4 5 3 3 2 5 3 5 1 5 6 7 9 9 7 6 8 10 10 9 8 8 10
21 16 9 7 6 9 12 8 2 3 0 1 5 3 4 4 0 1 0 2 2 4 5 3 4 3 2 1 2 2 1 1 1 7 7 7 6 5 8 8 3 2 3 4 1 1 5 5 4 5 2 6 12 6 6 6 4 2 2 1 0 5 1 4 1 3 2 2 2 4 2 1 1 2 2 3 7 11 10 9 10 10 11 9 7 8 8 8
14 4 2 3 3 2 8 8 6 1 1 4 4 2 3 2 1 2 2 2 1 4 9 7 3 1 2 2 2 3 3 1 1 2 0 6 3 8 2 2 7 10 6 5 3 3 1 3 1 2 3 7 8 7 7 7 5 5 5 7 4 3 4 5 2 4 1 1 2 2 3 2 2 2 3 7 9 10 9 9 7 8 8 6 6 8 9 8
7 7 1 2 2 2 7 9 7 4 2 4 4 3 2 2 3 4 2 1 3 3 2 4 2 2 3 3 2 5 4 1 1 2 4 1 1 5 3 4 2 5 7 6 2 3 2 2 1 2 7 3 3 1 1 1 3 7 6 5 4 1 3 2 3 1 0 3 1 1 1 2 3 2 2 7 8 8 8 7 6 7 9 10 7 9 8 9
6 4 3 2 2 3 7 9 8 2 3 3 2 1 1 2 1 2 1 1 1 1 1 1 3 2 1 2 2 4 7 1 2 0 3 3 1 3 4 4 5 9 11 2 5 2 3 4 3 3 2 1 2 5 5 2 3 2 2 5 5 2 4 2 1 1 2 2 1 2 2 2 5 2 2 5 7 6 6 7 7 9 9 9 8 9 9 7
3 3 2 3 2 5 6 8 1 2 3 3 0 1 2 3 2 3 3 2 2 2 1 2 2 2 2 2 3 2 3 3 1 1 3 1 2 1 1 1 5 2 1 7 5 3 1 2 3 1 4 3 1 2 3 5 2 3 3 4 3 2 1 4 2 1 2 1 0 2 1 2 2 2 2 3 5 4 5 5 6 9 7 6 8 8 8 8
1 1 3 2 4 4 7 3 1 4 3 2 2 2 1 2 3 5 3 3 1 3 2 1 3 3 2 3 2 3 2 1 1 1 2 1 1 1 1 1 0 2 2 7 4 1 2 0 2 1 2 1 5 1 2 5 6 4 4 2 2 2 1 2 3 1 3 2 2 1 2 2 2 2 2 4 4 3 3 6 5 5 7 8 8 9 8 8
2 1 1 2 3 5 3 1 4 3 3 0 1 1 1 1 3 3 2 5 3 3 4 2 1 2 2 4 1 0 2 1 1 1 2 2 3 2 1 0 1 1 3 3 5 2 2 1 5 2 3 3 1 2 1 1 1 1 5 7 7 7 6 5 4 2 1 3 2 3 3 3 2 1 2 3 2 3 3 5 6 6 6 5 5 7 8 6
1 3 1 2 5 4 2 2 2 0 2 1 1 2 1 3 2 3 2 2 4 2 2 2 3 5 2 4 5 2 2 2 1 1 1 3 2 1 2 3 3 2 3 4 5 2 2 2 2 2 4 1 1 4 1 3 2 2 1 1 2 2 0 6 6 3 1 1 1 1 1 1 2 2 2 3 4 5 5 7 7 6 6 7 7 7 8 7
3 3 2 3 5 3 1 3 1 1 1 0 3 2 2 2 2 1 2 2 2 1 1 2 3 2 3 3 1 2 2 2 1 2 1 0 0 2 2 3 4 1 2 2 2 2 2 1 3 1 2 3 3 1 3 2 3 4 5 3 1 3 0 3 3 4 5 4 3 1 3 1 1 5 4 4 6 7 8 7 8 7 7 8 9 10 10 10
2 3 3 2 2 3 1 0 1 1 2 2 2 2 1 2 1 2 1 2 1 2 1 1 2 3 3 1 3 3 1 1 1 2 1 0 1 0 4 2 3 3 2 3 2 1 2 1 2 2 2 1 3 3 3 2 2 3 2 3 3 1 2 1 2 0 2 4 1 5 5 2 3 5 6 8 10 10 10 10 9 9 8 8 9 8 8 10
3 2 2 1 2 1 1 2 2 0 1 1 2 3 5 1 2 2 1 3 1 1 0 2 3 2 3 1 3 2 3 2 1 2 1 1 2 3 7 9 5 2 1 4 6 5 2 1 2 3 5 6 4 3 4 3 1 2 2 4 6 6 2 3 2 3 4 3 3 3 2 1 7 6 7 9 10 10 9 9 10 10 9 8 8 9 9 10
2 3 3 2 4 3 3 1 1 1 2 1 1 1 1 4 1 1 3 3 2 2 2 3 2 1 1 2 2 2 2 1 2 1 2 2 3 3 6 10 9 6 6 9 7 5 3 2 3 0 3 4 1 2 2 2 0 2 2 6 7 4 3 2 3 2 6 4 4 1 3 10 9 8 7 7 8 10 8 9 10 9 10 10 10 10 10 10
1 3 2 1 1 4 1 2 1 1 0 1 0 2 3 2 3 3 3 1 1 2 0 3 4 2 4 2 2 1 2 3 5 2 6 3 2 2 6 9 7 13 18 4 3 6 3 3 4 7 9 4 1 2 2 3 3 2 3 5 5 6 2 1 3 2 4 8 3 3 9 12 9 8 6 7 7 9 8 9 9 9 9 10 11 12 13 13
1 1 2 0 1 1 1 1 1 3 2 0 1 0 2 3 3 1 2 1 2 2 0 1 4 5 1 3 2 1 6 3 4 3 5 4 2 5 6 11 6 11 18 7 2 3 4 2 1 2 6 5 3 4 6 8 7 6 6 6 7 7 5 3 2 2 5 3 3 10 13 9 5 5 5 5 7 9 9 10 9 9 9 9 11 13 14 13
1 2 1 3 2 1 1 1 2 4 4 1 1 2 1 2 3 1 1 4 2 2 4 1 5 8 5 2 2 2 4 0 1 2 4 6 5 3 3 2 3 7 9 6 2 2 4 3 2 3 4 5 7 5 3 8 5 7 9 8 7 8 8 8 7 5 1 1 8 16 13 10 4 4 5 6 7 8 10 9 9 10 10 9 10 12 13 11
3 3 2 4 5 3 1 1 2 2 3 3 0 1 0 1 3 4 1 0 2 2 1 2 5 6 4 4 3 3 3 3 2 2 2 3 2 4 2 2 2 4 5 5 1 0 1 2 3 2 2 3 6 5 4 3 5 9 8 8 7 6 9 8 6 8 9 13 13 15 14 8 4 6 7 7 8 9 11 12 10 9 9 10 11 12 12 13
0 0 3 6 3 3 1 3 2 1 1 2 1 1 1 1 1 1 3 1 1 3 4 4 2 2 2 3 5 5 1 3 4 7 4 3 2 2 2 0 3 4 8 3 2 2 3 3 2 1 3 1 3 5 3 4 6 10 9 10 10 8 5 5 4 3 3 7 12 12 8 5 6 8 8 8 9 11 11 10 9 9 9 10 11 12 13 13
1 1 1 5 3 3 1 1 1 1 1 1 1 2 0 2 2 2 0 1 2 3 1 1 2 0 2 5 3 1 5 7 9 8 6 5 1 0 3 3 4 2 1 3 3 1 2 7 4 3 4 2 1 3 4 3 2 1 5 6 8 4 2 2 5 5 4 6 9 7 2 7 10 9 11 9 10 10 11 9 9 10 10 10 12 12 13 13
Wind_Direction
356 356 357 359 359 360 359 360 357 357 355 354 353 350 347 346 346 344 343 344 344 343 341 341 338 334 331 328 325 318 325 319 309 294 263 244 213 168 178 48 168 193 192 131 126 124 105 120 118 23 117 162 70 171 143 185 92 185 191 208 234 228 196 185 207 186 63 302 341 336 354 339 331 344 350 268 102 50 159 295 326 309 20 323 121 131 138 144
355 356 357 358 358 358 358 357 357 355 355 353 351 349 347 346 346 344 344 344 344 343 344 342 341 336 332 328 322 329 338 312 288 277 240 226 203 192 181 113 157 177 165 143 150 135 126 130 132 142 138 137 322 143 351 157 247 201 123 211 241 135 225 172 88 229 309 336 321 319 332 342 315 318 330 328 336 279 224 246 336 292 49 100 118 128 145 149
352 355 356 356 356 356 356 355 354 354 353 351 350 347 345 343 344 344 344 343 342 344 343 344 341 336 335 328 324 347 336 308 269 262 259 232 233 211 180 168 160 170 185 158 167 150 151 154 149 139 67 117 154 152 224 130 207 195 215 223 225 147 44 215 226 302 242 292 308 324 324 322 306 268 312 299 324 238 263 233 288 259 184 130 130 141 145 149
350 352 355 354 354 354 353 353 352 353 351 349 347 347 345 344 342 344 341 341 342 343 341 341 341 337 332 329 328 338 321 275 140 83 240 257 266 191 176 166 151 173 109 71 105 102 78 111 134 139 113 143 130 227 176 163 205 148 223 235 77 159 229 143 209 255 284 241 295 309 308 300 17 317 287 321 308 276 250 218 214 217 173 136 135 139 141 134
348 350 350 352 352 351 351 350 350 349 349 346 347 347 348 343 341 341 337 337 341 341 339 339 341 335 331 330 329 337 313 257 134 240 296 313 340 151 161 161 160 163 123 126 93 99 131 136 138 54 122 143 136 138 232 176 282 140 233 75 120 117 274 286 278 270 266 298 301 300 311 321 317 242 269 285 276 299 332 273 213 158 122 127 131 130 124 112
345 348 350 349 349 349 347 347 347 347 345 345 346 346 342 340 339 337 334 335 337 338 338 339 338 337 331 334 317 257 283 34 358 331 334 13 117 136 148 155 157 136 139 120 111 129 123 122 148 153 156 157 170 177 168 202 169 236 233 243 207 259 275 278 267 268 46 303 302 304 312 331 312 304 272 239 238 263 70 24 296 118 122 127 134 138 130 130
344 345 349 347 347 346 346 344 343 344 343 345 341 341 339 338 335 333 332 333 334 336 337 337 338 336 343 342 82 331 84 281 332 303 11 105 121 123 131 141 140 138 136 113 128 136 142 136 158 158 148 101 136 193 158 191 219 248 249 74 16 155 237 243 266 283 290 265 277 282 311 293 309 313 81 287 258 287 2 32 118 122 128 127 125 110 109 113
342 344 346 348 345 344 342 343 339 337 343 340 338 336 335 333 331 329 330 329 330 332 334 335 339 339 1 355 334 324 101 255 269 353 28 118 123 113 112 112 130 129 153 146 148 135 146 150 172 129 168 180 162 184 158 181 201 228 249 149 261 237 242 262 266 280 271 266 271 277 282 283 226 278 342 278 328 32 88 116 119 127 121 120 111 113 118 119
341 342 343 347 344 344 342 339 337 337 337 339 334 332 330 328 326 325 324 325 326 327 332 333 338 343 75 62 78 322 275 239 260 338 123 111 113 108 129 120 158 144 123 138 169 152 158 195 141 197 187 190 169 182 155 185 224 227 249 262 278 273 273 268 280 265 265 281 232 268 268 269 274 307 246 273 53 95 120 123 128 125 123 121 118 126 125 129
339 339 340 343 343 341 339 337 335 335 335 332 333 328 323 324 322 321 317 318 320 323 325 332 337 347 5 4 65 346 273 200 47 82 105 113 109 109 58 115 143 132 132 135 123 160 188 175 176 192 143 79 160 177 162 207 226 145 219 233 259 272 304 277 248 285 28 262 205 252 281 292 310 338 287 87 95 122 126 129 134 133 130 127 130 134 140 142
336 338 339 340 340 339 338 335 334 334 333 331 327 323 320 316 319 313 314 310 314 317 321 320 344 344 30 339 101 261 166 109 94 136 128 128 131 138 132 148 158 134 116 132 174 195 117 164 197 122 238 193 165 153 189 195 336 237 256 270 243 261 252 244 278 268 302 280 202 219 265 314 289 151 262 66 119 137 130 137 143 135 139 130 133 142 152 147
336 337 338 341 339 337 336 335 333 333 331 328 324 318 316 315 312 311 307 306 302 309 318 299 45 12 320 61 213 230 131 131 149 146 145 144 151 161 158 168 178 158 156 163 200 193 183 163 152 182 138 144 164 119 234 241 225 266 338 282 313 321 309 169 229 3 99 260 191 191 268 249 179 250 75 39 132 145 137 141 146 143 143 130 134 144 156 155
335 335 336 337 336 335 335 334 333 331 330 325 320 318 315 313 311 308 304 299 294 291 296 263 176 200 298 281 228 224 28 132 129 110 180 8 18 351 162 181 182 169 158 154 186 208 187 145 210 176 135 203 147 248 106 127 262 315 166 267 297 324 301 44 274 338 229 253 125 172 271 235 229 254 342 62 146 147 140 144 144 145 148 148 147 157 163 169
333 334 336 335 335 335 334 333 331 330 326 322 319 317 315 313 309 305 299 286 281 248 212 195 129 181 183 245 271 235 222 191 38 281 245 160 191 242 137 151 145 122 45 111 154 159 160 207 179 171 115 208 133 186 200 28 1 246 33 170 352 318 310 129 347 318 291 75 250 201 255 277 267 292 40 113 160 163 151 155 154 158 155 158 154 158 167 175
333 335 336 334 335 336 333 332 331 328 324 321 319 319 316 314 311 303 293 287 241 198 171 91 127 141 182 267 263 271 177 122 222 234 162 167 178 115 188 133 148 176 193 141 115 141 138 151 174 178 194 96 297 266 58 350 33 357 254 232 112 252 105 324 75 320 26 31 32 208 249 270 306 310 4 131 169 175 161 163 160 168 166 163 166 165 167 174
332 334 334 335 336 334 333 331 330 327 323 321 321 320 319 315 318 339 51 117 125 147 135 137 166 206 338 284 60 78 126 182 223 240 187 184 177 201 138 127 114 114 153 208 60 99 127 153 171 189 171 195 188 68 23 228 134 25 256 258 292 128 334 282 87 340 304 275 46 341 303 320 254 210 355 142 168 182 172 173 168 177 178 170 174 174 174 169
333 333 335 334 334 333 331 330 329 326 324 322 323 324 321 314 41 79 105 114 113 115 164 102 142 189 294 89 257 264 242 228 347 96 114 201 174 133 121 120 137 137 184 89 100 133 103 166 56 125 21 112 74 92 223 245 235 215 33 254 84 283 32 272 323 119 18 11 350 36 301 270 281 306 358 145 174 183 184 184 182 181 189 190 184 184 185 182
333 332 332 333 331 330 330 329 327 325 323 325 326 325 314 308 76 97 95 104 112 136 84 114 183 282 247 28 233 197 5 319 266 108 89 170 152 146 141 145 106 131 144 99 93 165 256 152 305 180 123 117 179 185 205 221 207 214 208 239 230 162 202 305 289 117 338 99 318 296 260 271 280 275 255 164 174 182 198 196 190 190 193 196 193 193 196 193
331 331 332 329 328 328 328 328 326 324 322 326 325 324 334 114 2 133 106 152 152 104 267 186 167 185 253 237 297 306 245 219 272 184 142 136 158 162 79 81 129 135 146 168 136 183 113 112 105 142 207 182 187 199 212 143 153 142 168 238 255 275 190 233 261 301 343 324 320 300 293 299 294 297 275 97 179 183 200 200 203 202 202 205 202 201 201 205
330 330 329 328 327 326 328 327 326 322 325 323 336 349 147 210 256 227 187 290 229 225 249 175 219 329 329 263 272 272 263 45 265 54 107 157 136 163 96 128 97 78 136 193 132 214 182 166 186 205 189 150 172 194 204 193 147 102 142 222 250 266 255 233 246 267 220 288 265 282 275 261 276 278 308 60 167 189 201 207 205 207 207 210 210 211 204 213
328 329 327 327 326 327 328 328 326 324 321 303 306 259 225 148 92 280 267 236 227 251 254 227 195 214 225 84 54 21 26 325 41 243 161 147 125 150 174 160 154 170 152 84 129 108 189 194 220 163 143 173 188 186 119 101 228 215 249 258 267 201 280 202 274 286 64 219 271 218 269 268 266 278 314 74 172 200 202 208 209 210 210 211 214 213 208 215
329 326 327 326 326 328 327 326 329 345 355 209 208 246 36 237 8 338 10 301 282 227 229 244 274 258 276 285 7 13 30 314 272 241 203 183 153 189 152 180 159 194 96 140 110 144 187 211 186 160 170 89 78 140 167 173 174 178 233 263 274 263 240 256 261 289 250 207 255 309 283 283 285 321 296 285 228 227 213 209 208 207 208 211 211 211 203 208
327 326 325 327 328 328 327 325 347 37 348 22 356 304 238 46 324 306 256 282 272 255 234 220 236 254 287 193 213 165 213 212 252 189 188 180 137 217 141 165 181 134 133 168 182 148 190 236 198 183 137 124 75 120 147 111 151 192 203 227 257 76 314 291 186 42 142 221 304 293 288 283 299 291 282 294 285 249 246 232 228 221 213 209 208 202 201 206
326 326 325 327 328 328 325 329 46 325 60 339 275 237 316 307 324 345 163 263 314 299 207 213 210 243 219 183 183 173 179 223 164 233 154 169 164 142 151 177 144 158 190 180 193 195 183 16 124 126 176 163 161 149 145 195 224 202 223 237 254 192 225 216 281 358 281 251 232 261 274 269 270 286 259 197 274 276 238 230 235 231 231 227 214 210 208 208
325 325 326 326 331 329 325 331 37 259 315 296 241 255 271 296 337 318 217 290 199 265 112 182 186 234 222 48 141 179 202 346 220 52 169 171 123 143 189 96 145 201 194 162 132 198 215 176 126 136 153 184 133 159 201 180 245 228 215 224 233 217 232 217 300 324 295 279 145 228 240 245 152 276 256 265 292 261 246 238 225 224 224 222 220 213 206 210
324 323 326 327 329 333 320 322 275 323 311 265 171 80 322 315 335 317 193 64 314 283 248 340 190 94 146 103 151 216 118 223 219 193 174 194 156 146 100 165 198 207 156 155 176 233 226 138 174 162 163 179 192 199 198 189 238 252 248 197 217 221 220 185 153 169 250 246 86 326 295 275 295 264 245 264 277 267 253 239 241 227 222 222 221 214 205 199
324 323 325 326 329 338 342 178 13 311 258 196 138 330 320 313 281 168 247 330 325 251 105 330 208 126 206 162 165 186 184 225 26 145 178 203 174 285 161 160 90 44 123 133 73 220 144 146 167 129 151 157 172 229 196 184 184 226 264 171 197 197 200 196 185 207 246 5 251 167 245 267 284 271 212 275 287 276 262 240 241 239 226 222 222 216 209 199
322 323 321 321 323 330 294 301 312 279 255 65 348 329 309 309 154 65 215 61 279 240 48 191 271 113 310 119 183 209 20 305 191 190 297 215 110 29 226 175 188 161 157 155 211 118 154 169 175 162 167 169 211 219 138 175 183 230 165 172 173 194 202 164 187 199 247 293 271 170 143 236 234 235 137 318 296 310 26 30 236 232 230 228 220 210 191 196
321 318 316 316 315 310 286 254 254 250 227 349 333 309 316 263 204 135 135 101 270 51 176 119 261 121 60 115 210 251 326 310 348 32 112 132 319 152 197 191 175 136 172 187 211 126 270 183 196 169 168 204 208 167 165 176 204 254 131 104 83 104 107 182 183 185 190 214 253 154 197 264 268 253 261 126 268 314 355 0 25 158 212 225 203 164 160 163
316 315 312 314 316 304 289 233 233 229 292 320 304 306 273 173 184 106 44 231 328 91 14 274 163 331 87 149 227 245 250 282 319 78 144 169 175 31 22 98 128 138 179 316 301 163 35 334 158 151 196 210 195 175 164 184 163 97 135 125 104 79 95 87 82 179 167 235 249 129 200 245 291 311 321 356 29 335 322 330 15 130 162 196 157 140 139 137
314 309 308 309 291 300 299 257 249 249 254 291 299 263 203 46 171 81 167 248 344 324 305 25 22 219 357 321 291 208 227 241 58 146 148 174 158 46 139 89 64 89 76 344 251 1 282 70 165 222 142 63 181 128 30 279 67 216 110 163 141 125 128 148 111 206 227 255 82 209 216 210 232 189 103 353 333 326 306 295 306 288 194 151 154 141 135 121
311 308 300 293 268 259 225 258 151 162 336 319 304 92 152 199 14 178 198 316 227 7 2 324 267 332 314 13 240 205 176 162 186 171 168 184 169 172 185 172 160 144 210 194 229 78 248 232 244 289 229 189 164 222 114 156 194 195 179 183 219 152 143 199 185 205 217 249 105 138 177 170 234 325 355 343 351 347 330 296 289 262 189 154 141 142 133 130
312 306 298 281 264 238 237 249 267 295 322 309 51 58 114 101 219 235 297 338 144 17 321 210 302 311 305 313 217 234 255 191 168 177 144 53 180 175 31 112 178 146 212 156 208 191 248 219 299 252 285 207 189 221 162 187 181 177 190 183 181 185 144 230 175 352 316 255 207 213 129 277 346 319 18 354 357 4 6 351 238 169 150 145 121 115 122 131
310 308 298 268 247 233 238 241 254 279 282 305 104 82 51 100 229 77 8 329 314 335 302 331 317 297 193 324 352 342 167 249 174 160 169 142 173 184 196 71 165 147 79 125 195 188 231 227 212 158 223 159 191 215 211 223 160 190 124 183 204 175 183 198 198 226 241 289 80 77 173 219 201 81 6 11 8 37 40 64 104 120 119 126 128 117 122 133
312 302 274 282 250 239 228 224 181 201 255 56 71 99 159 224 255 179 93 304 290 307 298 310 283 319 308 326 308 328 296 171 53 141 163 147 179 190 182 193 218 94 89 176 215 119 229 262 283 204 6 160 186 197 101 103 112 154 163 66 233 225 149 246 64 263 232 181 162 169 256 343 308 43 6 19 39 45 35 59 92 105 122 131 135 128 124 129
318 324 326 254 234 235 200 200 186 167 233 80 116 127 187 207 72 165 69 225 307 329 314 316 123 327 339 311 281 359 332 282 131 153 44 192 140 186 166 152 180 188 155 196 139 186 90 240 323 294 136 204 189 145 194 168 229 158 166 199 214 27 131 92 109 51 71 339 224 61 277 207 240 218 58 43 47 40 33 39 70 115 125 123 122 119 119 122
327 322 165 258 262 150 169 170 174 154 104 96 105 204 207 255 221 171 302 329 319 336 355 2 355 24 351 326 304 332 335 13 75 212 179 129 196 193 172 210 162 174 219 172 215 253 216 245 306 155 214 220 358 252 101 13 116 115 212 202 80 183 29 147 228 86 196 242 236 115 220 283 208 179 68 56 42 28 32 46 54 92 106 98 89 109 109 95
325 321 276 346 358 132 152 160 148 107 80 98 148 39 245 113 166 245 347 322 48 38 24 193 292 18 356 338 310 330 334 190 348 242 154 183 187 114 140 174 191 198 200 181 228 193 177 274 247 235 308 108 354 160 104 87 316 254 331 135 193 169 204 38 129 209 175 211 243 171 273 257 253 66 65 57 30 360 10 57 85 95 85 95 96 92 92 99
292 293 86 8 87 140 150 158 195 88 65 106 317 274 210 265 289 222 214 133 161 89 216 241 258 15 30 325 268 282 311 17 335 199 151 205 206 40 289 130 192 213 333 161 198 127 309 220 261 198 175 23 17 206 208 168 135 96 140 141 10 260 186 175 198 2 247 221 118 200 182 231 176 49 50 23 32 355 348 69 93 108 109 94 86 77 91 90
252 143 56 30 124 135 146 178 333 57 73 162 190 232 188 253 240 250 212 212 266 182 255 286 177 292 285 255 237 302 323 326 233 298 248 138 202 139 287 337 305 82 15 217 195 161 162 283 243 51 270 315 184 285 234 170 179 151 192 188 164 55 325 7 63 259 260 177 201 193 215 187 68 355 342 17 25 33 8 83 69 87 99 111 111 117 116 115
283 101 94 85 144 142 175 286 64 62 106 22 218 318 140 283 324 274 295 180 226 233 249 204 215 245 254 330 303 185 286 332 277 187 214 120 197 188 305 263 247 114 130 126 187 189 125 173 209 314 280 241 312 12 172 197 264 248 198 196 195 152 168 186 207 97 263 216 189 186 227 81 77 317 15 28 74 79 92 117 99 60 57 73 118 119 117 114
106 117 112 119 148 173 268 49 42 7 93 164 58 175 352 331 295 285 314 44 209 262 81 260 242 253 226 232 259 295 280 288 346 265 248 204 204 140 147 9 282 193 182 165 187 179 198 140 127 200 229 270 94 80 16 7 101 100 249 6 5 355 263 198 224 171 145 75 41 17 257 101 359 102 68 92 105 111 106 91 87 85 83 84 80 78 81 80
62 97 4 156 165 258 50 65 312 51 19 312 302 235 230 253 251 314 346 346 317 178 286 224 236 221 233 232 277 240 246 264 244 281 335 356 132 263 310 292 214 169 105 77 41 107 174 82 158 257 348 286 270 69 103 101 161 133 78 52 27 217 355 290 284 166 167 128 177 147 233 99 73 98 105 126 112 85 69 71 85 65 49 54 59 55 57 60
98 109 74 117 225 287 8 93 47 335 300 315 42 295 242 264 294 319 341 319 245 331 235 289 349 168 317 270 272 269 334 269 202 207 105 355 86 320 15 323 242 224 154 181 160 216 193 254 179 134 170 75 143 157 133 112 89 46 43 31 350 307 174 232 124 28 177 187 281 183 221 140 140 117 117 95 73 66 63 56 60 72 63 62 61 61 57 60
111 66 57 13 6 300 59 172 149 174 8 342 336 352 351 302 208 256 222 287 262 230 282 246 247 326 276 355 283 283 273 280 310 341 91 121 19 321 7 1 333 197 269 118 114 142 65 81 181 190 177 187 171 193 200 192 142 348 61 0 31 27 25 189 197 161 227 142 171 213 128 94 124 133 106 90 95 75 65 68 69 67 70 68 72 70 64 65
156 125 309 63 6 52 84 12 70 145 130 206 38 24 85 326 6 324 180 258 245 300 221 303 317 166 335 338 301 337 345 58 314 29 5 58 2 25 0 359 14 356 89 106 108 113 107 90 36 246 235 237 70 42 37 332 247 179 352 23 0 3 322 245 42 162 217 149 195 31 116 141 136 128 91 79 82 85 73 65 68 72 74 76 76 75 72 70
97 105 153 171 357 31 67 356 114 158 140 200 76 3 353 309 283 304 167 206 131 339 10 62 357 13 358 357 5 308 4 319 13 89 18 3 352 343 311 23 18 10 346 22 67 89 84 77 44 70 58 62 10 279 336 342 102 52 21 6 5 7 3 242 193 233 104 122 215 110 155 138 141 110 112 108 89 83 81 76 76 76 75 76 80 81 76 68
112 211 109 3 142 127 94 40 49 97 69 325 50 308 341 340 2 24 318 163 298 316 237 190 39 51 258 299 285 45 347 11 31 9 337 19 298 5 23 337 20 355 347 324 323 127 132 117 281 72 71 63 49 76 100 92 70 78 61 38 28 15 40 108 348 327 319 220 212 148 152 129 92 98 100 80 96 102 90 85 84 86 84 82 80 76 71 67
56 124 115 307 136 285 101 87 115 107 103 61 103 23 334 18 9 299 248 314 23 28 358 69 347 357 345 323 226 70 357 348 358 30 42 349 15 332 90 283 341 43 344 287 336 95 106 60 109 116 105 45 34 50 115 114 112 67 47 46 46 58 65 71 63 38 245 283 120 136 107 89 89 86 90 91 99 101 98 93 85 79 75 76 72 72 75 72
188 134 147 10 71 106 55 65 98 102 88 336 85 276 256 282 358 351 151 247 357 359 351 74 352 345 1 30 46 71 33 9 16 317 34 345 310 30 26 61 299 356 272 268 301 306 277 130 141 144 96 40 8 41 72 107 126 84 57 45 37 64 80 65 59 29 69 98 106 112 107 93 68 97 99 98 98 102 89 79 71 68 70 74 75 71 73 73
353 15 150 127 84 355 40 18 67 68 131 356 71 156 241 229 310 340 290 202 49 7 5 355 340 317 97 43 77 93 344 315 265 258 256 193 335 9 359 196 53 318 321 320 337 14 52 134 181 162 125 120 7 17 52 90 91 96 59 28 17 10 44 19 36 357 343 137 127 115 111 124 135 117 107 97 90 81 79 75 74 67 63 64 66 68 64 64
104 64 92 104 96 344 28 112 68 137 75 236 220 275 271 1 316 292 258 185 220 232 282 281 225 279 348 15 43 353 309 282 271 266 258 254 308 130 244 288 312 286 322 294 315 11 129 141 161 149 138 147 38 347 9 347 278 136 32 350 337 345 12 123 45 32 1 142 136 151 125 127 136 132 109 82 81 76 70 63 72 72 68 68 68 66 63 57